JST718 YMLT-YMML

Flight info

Callsign JST718
Flight time 0h 41m
Altitude 28000
Route FLIKI H215 RAZZI W687 ML
Aircraft A321/M-SDE3FGHIRWY/LB1

Departure

Time 2026-05-06 22:24
Airport Launceston Airport (YMLT)

Arrival

Time 2026-05-06 23:05
Airport Melbourne Airport (YMML)
Time Latitude Longitude Altitude Speed Heading
2026-05-06 22:24 -41.56759 147.15596 6899 ft 267 kts 353°
2026-05-06 22:24 -41.54920 147.15597 7840 ft 269 kts
2026-05-06 22:24 -41.53055 147.15891 8844 ft 270 kts
2026-05-06 22:24 -41.51199 147.16260 9763 ft 271 kts
2026-05-06 22:25 -41.49328 147.16620 10435 ft 272 kts
2026-05-06 22:25 -41.47445 147.16953 11099 ft 274 kts
2026-05-06 22:25 -41.45531 147.16852 11579 ft 283 kts 347°
2026-05-06 22:25 -41.43576 147.16072 11738 ft 304 kts 336°
2026-05-06 22:26 -41.41565 147.14909 11883 ft 326 kts 333°
2026-05-06 22:26 -41.39447 147.13562 12023 ft 348 kts 332°
2026-05-06 22:26 -41.37219 147.12159 12453 ft 359 kts 333°
2026-05-06 22:26 -41.34926 147.10784 13052 ft 363 kts 334°
2026-05-06 22:27 -41.32593 147.09459 13738 ft 367 kts 335°
2026-05-06 22:27 -41.30221 147.08161 14338 ft 370 kts 335°
2026-05-06 22:27 -41.27828 147.06877 14983 ft 372 kts 335°
2026-05-06 22:27 -41.25426 147.05602 15644 ft 373 kts 335°
2026-05-06 22:28 -41.23011 147.04318 16328 ft 374 kts 334°
2026-05-06 22:28 -41.20589 147.03024 16981 ft 376 kts 334°
2026-05-06 22:28 -41.18153 147.01718 17645 ft 378 kts 334°
2026-05-06 22:28 -41.15705 147.00402 18295 ft 381 kts 334°
2026-05-06 22:29 -41.13238 146.99072 18765 ft 386 kts 334°
2026-05-06 22:29 -41.10733 146.97718 19179 ft 392 kts 334°
2026-05-06 22:29 -41.08221 146.96362 19581 ft 398 kts 334°
2026-05-06 22:29 -41.05634 146.94971 19983 ft 404 kts 334°
2026-05-06 22:30 -41.03003 146.93563 20341 ft 412 kts 334°
2026-05-06 22:30 -41.00305 146.92118 20564 ft 423 kts 334°
2026-05-06 22:30 -40.97551 146.90648 20914 ft 430 kts 334°
2026-05-06 22:30 -40.94750 146.89155 21275 ft 437 kts 334°
2026-05-06 22:31 -40.91911 146.87642 21626 ft 444 kts 334°
2026-05-06 22:31 -40.89021 146.86105 22019 ft 450 kts 335°
2026-05-06 22:31 -40.86113 146.84560 22550 ft 452 kts 335°
2026-05-06 22:31 -40.83182 146.83000 22932 ft 457 kts 335°
2026-05-06 22:32 -40.80208 146.81416 23130 ft 466 kts 334°
2026-05-06 22:32 -40.77165 146.79792 23291 ft 477 kts 334°
2026-05-06 22:32 -40.74065 146.78140 23543 ft 484 kts 335°
2026-05-06 22:32 -40.70921 146.76476 23819 ft 489 kts 335°
2026-05-06 22:33 -40.67752 146.74800 24148 ft 492 kts 335°
2026-05-06 22:33 -40.64575 146.73120 24654 ft 488 kts 335°
2026-05-06 22:33 -40.61442 146.71468 25337 ft 483 kts 335°
2026-05-06 22:33 -40.58305 146.69818 25524 ft 490 kts 335°
2026-05-06 22:34 -40.55125 146.68138 25659 ft 497 kts 335°
2026-05-06 22:34 -40.51901 146.66434 25925 ft 501 kts 335°
2026-05-06 22:34 -40.48657 146.64723 26242 ft 504 kts 335°
2026-05-06 22:34 -40.45398 146.63008 26567 ft 506 kts 335°
2026-05-06 22:35 -40.42125 146.61293 26966 ft 506 kts 335°
2026-05-06 22:35 -40.38876 146.59598 27527 ft 502 kts 335°
2026-05-06 22:35 -40.35611 146.57891 27697 ft 508 kts 335°
2026-05-06 22:35 -40.32319 146.56165 27949 ft 511 kts 335°
2026-05-06 22:36 -40.25828 146.52768 28066 ft 497 kts 335°
2026-05-06 22:36 -40.19444 146.49434 28066 ft 492 kts 335°
2026-05-06 22:37 -40.13121 146.46138 28064 ft 489 kts 334°
2026-05-06 22:37 -40.06804 146.42859 28068 ft 488 kts 334°
2026-05-06 22:38 -40.00485 146.39590 28075 ft 489 kts 334°
2026-05-06 22:38 -39.94166 146.36325 28116 ft 488 kts 335°
2026-05-06 22:39 -39.87878 146.33096 28115 ft 484 kts 335°
2026-05-06 22:39 -39.81631 146.29903 28107 ft 481 kts 335°
2026-05-06 22:40 -39.76460 146.27252 28069 ft 484 kts 334°
2026-05-06 22:40 -39.70148 146.24014 28084 ft 486 kts 334°
2026-05-06 22:41 -39.60707 146.19204 28097 ft 486 kts 334°
2026-05-06 22:42 -39.54412 146.16004 28093 ft 486 kts 334°
2026-05-06 22:42 -39.48114 146.12811 28097 ft 486 kts 334°
2026-05-06 22:43 -39.41818 146.09613 28109 ft 486 kts 334°
2026-05-06 22:43 -39.35519 146.06424 28111 ft 486 kts 334°
2026-05-06 22:44 -39.29210 146.03237 28132 ft 492 kts 334°
2026-05-06 22:44 -39.22797 146.00008 28118 ft 495 kts 334°
2026-05-06 22:45 -39.16387 145.96784 28123 ft 494 kts 334°
2026-05-06 22:45 -39.09974 145.93561 28133 ft 495 kts 334°
2026-05-06 22:46 -39.03602 145.90367 28126 ft 494 kts 334°
2026-05-06 22:46 -38.97218 145.87187 27497 ft 489 kts 334°
2026-05-06 22:46 -38.94056 145.85616 26973 ft 486 kts 334°
2026-05-06 22:47 -38.90911 145.84049 26488 ft 483 kts 334°
2026-05-06 22:47 -38.87787 145.82486 25993 ft 480 kts 334°
2026-05-06 22:47 -38.84687 145.80933 25496 ft 478 kts 334°
2026-05-06 22:47 -38.81596 145.79389 25130 ft 473 kts 334°
2026-05-06 22:48 -38.78549 145.77875 24680 ft 469 kts 333°
2026-05-06 22:48 -38.75461 145.76339 23929 ft 482 kts 334°
2026-05-06 22:48 -38.72302 145.74769 23345 ft 490 kts 334°
2026-05-06 22:48 -38.69135 145.73201 22831 ft 485 kts 334°
2026-05-06 22:49 -38.66017 145.71667 22421 ft 477 kts 334°
2026-05-06 22:49 -38.62938 145.70154 21890 ft 473 kts 334°
2026-05-06 22:49 -38.59884 145.68649 21327 ft 468 kts 334°
2026-05-06 22:49 -38.56860 145.67158 20723 ft 464 kts 334°
2026-05-06 22:50 -38.53861 145.65675 20083 ft 459 kts 334°
2026-05-06 22:50 -38.50895 145.64208 19453 ft 454 kts 334°
2026-05-06 22:50 -38.47969 145.62761 18838 ft 448 kts 334°
2026-05-06 22:50 -38.45212 145.61037 18201 ft 437 kts 327°
2026-05-06 22:51 -38.42574 145.59219 17754 ft 425 kts 327°
2026-05-06 22:51 -38.40016 145.57459 17476 ft 411 kts 327°
2026-05-06 22:51 -38.37539 145.55757 17313 ft 397 kts 327°
2026-05-06 22:51 -38.35150 145.54115 17167 ft 383 kts 327°
2026-05-06 22:52 -38.32873 145.52553 16914 ft 363 kts 326°
2026-05-06 22:52 -38.30684 145.51053 16043 ft 354 kts 326°
2026-05-06 22:52 -38.28544 145.49583 15461 ft 342 kts 326°
2026-05-06 22:52 -38.26499 145.48179 15181 ft 327 kts 326°
2026-05-06 22:53 -38.24532 145.46828 14854 ft 316 kts 326°
2026-05-06 22:53 -38.22631 145.45522 14493 ft 305 kts 325°
2026-05-06 22:53 -38.20792 145.44257 14184 ft 296 kts 325°
2026-05-06 22:53 -38.18980 145.43011 13850 ft 297 kts 325°
2026-05-06 22:54 -38.17173 145.41767 13501 ft 295 kts 325°
2026-05-06 22:54 -38.15370 145.40527 13188 ft 294 kts 325°
2026-05-06 22:54 -38.13573 145.39294 12863 ft 293 kts 325°
2026-05-06 22:54 -38.11781 145.38069 12531 ft 292 kts 325°
2026-05-06 22:55 -38.10017 145.36864 12207 ft 292 kts 325°
2026-05-06 22:55 -38.08228 145.35644 11882 ft 291 kts 325°
2026-05-06 22:55 -38.06446 145.34430 11560 ft 290 kts 325°
2026-05-06 22:55 -38.04673 145.33221 11233 ft 289 kts 325°
2026-05-06 22:56 -38.02912 145.32022 10906 ft 287 kts 325°
2026-05-06 22:56 -38.01156 145.30826 10576 ft 286 kts 325°
2026-05-06 22:56 -37.99414 145.29619 10248 ft 284 kts 324°
2026-05-06 22:56 -37.97686 145.28407 9859 ft 285 kts 324°
2026-05-06 22:57 -37.95932 145.27168 9337 ft 290 kts 324°
2026-05-06 22:57 -37.94170 145.25926 8964 ft 289 kts 324°
2026-05-06 22:57 -37.92418 145.24699 8637 ft 287 kts 324°
2026-05-06 22:57 -37.90673 145.23477 8298 ft 285 kts 324°
2026-05-06 22:58 -37.88945 145.22269 7961 ft 284 kts 324°
2026-05-06 22:58 -37.87217 145.21060 7628 ft 283 kts 324°
2026-05-06 22:58 -37.85497 145.19859 7285 ft 282 kts 324°
2026-05-06 22:58 -37.83784 145.18671 6997 ft 279 kts 325°
2026-05-06 22:59 -37.82095 145.17537 6848 ft 271 kts 326°
2026-05-06 22:59 -37.80426 145.16433 6460 ft 273 kts 326°
2026-05-06 22:59 -37.78720 145.15303 5952 ft 279 kts 326°
2026-05-06 22:59 -37.77002 145.14164 5600 ft 278 kts 326°
2026-05-06 23:00 -37.75290 145.13032 5253 ft 278 kts 326°
2026-05-06 23:00 -37.73580 145.11895 4906 ft 277 kts 325°
2026-05-06 23:00 -37.72082 145.10472 4561 ft 265 kts 305°
2026-05-06 23:00 -37.70940 145.08678 4240 ft 261 kts 301°
2026-05-06 23:01 -37.69821 145.06890 3916 ft 258 kts 301°
2026-05-06 23:01 -37.68728 145.05161 3595 ft 243 kts 302°
2026-05-06 23:01 -37.67717 145.03550 3297 ft 223 kts 297°
2026-05-06 23:01 -37.67143 145.01889 3024 ft 195 kts 273°
2026-05-06 23:02 -37.67042 145.00234 2796 ft 185 kts 265°
2026-05-06 23:02 -37.66973 144.98627 2560 ft 183 kts 266°
2026-05-06 23:02 -37.66905 144.97021 2403 ft 183 kts 266°
2026-05-06 23:02 -37.66828 144.95425 2166 ft 180 kts 268°
2026-05-06 23:03 -37.66744 144.93888 1907 ft 167 kts 268°
2026-05-06 23:03 -37.66664 144.92504 1696 ft 150 kts 268°
2026-05-06 23:03 -37.66592 144.91248 1471 ft 141 kts 268°
2026-05-06 23:03 -37.66528 144.90033 1264 ft 137 kts 269°
2026-05-06 23:04 -37.66450 144.88850 1091 ft 134 kts 270°
2026-05-06 23:04 -37.66390 144.87678 969 ft 133 kts 269°
2026-05-06 23:04 -37.66323 144.86480 746 ft 141 kts 273°
2026-05-06 23:04 -37.66257 144.85275 556 ft 137 kts 276°
2026-05-06 23:05 -37.66186 144.84101 410 ft 126 kts 272°
2026-05-06 23:05 -37.66129 144.83137 412 ft 92 kts 274°
2026-05-06 23:05 -37.66094 144.82563 400 ft 43 kts 274°
2026-05-06 23:05 -37.66087 144.82337 397 ft 19 kts 258°
2026-05-06 23:06 -37.66179 144.82231 399 ft 20 kts 194°
2026-05-06 23:06 -37.66332 144.82237 390 ft 25 kts 155°
2026-05-06 23:06 -37.66410 144.82442 379 ft 28 kts 102°
2026-05-06 23:06 -37.66441 144.82674 385 ft 26 kts 97°
2026-05-06 23:07 -37.66453 144.82893 387 ft 19 kts 94°
2026-05-06 23:07 -37.66460 144.83022 390 ft 13 kts 93°
2026-05-06 23:07 -37.66466 144.83120 393 ft 12 kts 95°
2026-05-06 23:07 -37.66474 144.83265 400 ft 20 kts 94°
2026-05-06 23:08 -37.66482 144.83416 403 ft 17 kts 94°
2026-05-06 23:08 -37.66491 144.83572 404 ft 21 kts 94°
2026-05-06 23:08 -37.66499 144.83744 404 ft 22 kts 93°
2026-05-06 23:08 -37.66508 144.83911 404 ft 16 kts 95°
2026-05-06 23:09 -37.66517 144.84029 404 ft 12 kts 95°
2026-05-06 23:09 -37.66555 144.84132 402 ft 15 kts 141°
2026-05-06 23:09 -37.66667 144.84169 397 ft 19 kts 170°
2026-05-06 23:09 -37.66798 144.84193 392 ft 18 kts 172°
2026-05-06 23:10 -37.66923 144.84218 388 ft 13 kts 170°
2026-05-06 23:10 -37.67009 144.84233 386 ft 14 kts 173°
2026-05-06 23:10 -37.67120 144.84252 383 ft 13 kts 172°
2026-05-06 23:10 -37.67199 144.84300 382 ft 12 kts 116°
2026-05-06 23:11 -37.67200 144.84392 384 ft 9 kts 85°
2026-05-06 23:11 -37.67203 144.84456 384 ft 7 kts 102°
2026-05-06 23:11 -37.67212 144.84512 385 ft 6 kts 92°
2026-05-06 23:11 -37.67208 144.84568 371 ft 6 kts 84°
2026-05-06 23:12 -37.67195 144.84590 386 ft 1 kts 30°
2026-05-06 23:12 -37.67188 144.84591 387 ft 1 kts
2026-05-06 23:12 -37.67178 144.84592 387 ft 2 kts
2026-05-06 23:12 -37.67159 144.84590 387 ft 2 kts 354°
2026-05-06 23:13 -37.67152 144.84589 387 ft 2 kts 353°
2026-05-06 23:13 -37.67141 144.84587 388 ft 0 kts 353°
2026-05-06 23:13 -37.67136 144.84586 388 ft 0 kts 352°
2026-05-06 23:13 -37.67133 144.84585 388 ft 0 kts 352°
2026-05-06 23:14 -37.67128 144.84585 388 ft 0 kts 353°